Weather History for New York, NY

Change the Weather History Date:

Thursday, February 7, 2013

  Actual Average Record
Temperature  
Mean Temperature 30 °F 34 °F  
Max Temperature 33 °F 41 °F 52 °F (1951)
Min Temperature 26 °F 27 °F 5 °F (1993)
Degree Days  
Heating Degree Days 35 31  
Month to date heating degree days 250 219  
Since 1 July heating degree days 2599 2818  
Cooling Degree Days 0 0  
Month to date cooling degree days 0 0  
Year to date cooling degree days 0 0  
Moisture  
Dew Point 9 °F    
Average Humidity 46    
Maximum Humidity 63    
Minimum Humidity 28    
Precipitation  
Precipitation 0.00 in 0.09 in 1.01 in (1958)
Month to date precipitation 0.06 0.67  
Year to date precipitation 2.70 3.84  
Snow  
Snow 0.00 in 0.30 in 10.60 in (1967)
Month to date snowfall 1.0 2.2  
Since 1 July snowfall 4.0 15.1  
Snow Depth 0.00 in    
Sea Level Pressure  
Sea Level Pressure 30.43 in    
Wind  
Wind Speed 9 mph (NE)    
Max Wind Speed 13 mph    
Max Gust Speed 21 mph    
Visibility 10 miles    
Events      
T = Trace of Precipitation, MM = Missing Value Source: NWS Daily Summary

Daily Weather History Graph

Daily Weather History Graph

Search for Another Location

Airport:

Trip Planner

Search our weather history database for the weather conditions in past years. The results will help you decide how hot, cold, wet, or windy it might be!

Date:

Astronomy

Feb. 07, 2013 Rise Set
Actual Time 6:59 AM EST 5:20 PM EST
Civil Twilight 6:30 AM EST 5:49 PM EST
Nautical Twilight 5:58 AM EST 6:21 PM EST
Astronomical Twilight 5:26 AM EST 6:53 PM EST
Moon 4:36 AM EST (2/7) 2:41 PM EST (2/7)
Length of Visible Light 11h 18m
Length of Day
10h 21m
Waning Crescent, 9% of the Moon is Illuminated
Feb 7
Waning Crescent
Feb 10
New
Feb 17
First Quarter
Feb 25
Full
Mar 4
Last Quarter

Hourly Weather History & Observations

Time (EST) Temp. Windchill Dew Point Humidity Pressure Visibility Wind Dir Wind Speed Gust Speed Precip Events Conditions
12:51 AM 30.0 °F 21.7 °F 1.9 °F 30% 30.36 in 10.0 mi NNW 9.2 mph - N/A   Clear
1:51 AM 30.0 °F 22.4 °F 3.0 °F 32% 30.38 in 10.0 mi NNW 8.1 mph - N/A   Clear
2:51 AM 28.9 °F 21.1 °F 3.0 °F 33% 30.38 in 10.0 mi North 8.1 mph - N/A   Clear
3:51 AM 28.0 °F 22.8 °F 3.0 °F 34% 30.40 in 10.0 mi North 4.6 mph - N/A   Scattered Clouds
4:51 AM 28.0 °F 22.8 °F 3.0 °F 34% 30.43 in 10.0 mi North 4.6 mph - N/A   Mostly Cloudy
5:51 AM 27.0 °F 18.7 °F 3.9 °F 37% 30.44 in 10.0 mi NNE 8.1 mph - N/A   Mostly Cloudy
6:51 AM 27.0 °F 18.0 °F 3.9 °F 37% 30.45 in 10.0 mi NE 9.2 mph - N/A   Mostly Cloudy
7:51 AM 27.0 °F 19.5 °F 7.0 °F 43% 30.50 in 10.0 mi NE 6.9 mph 16.1 mph N/A   Overcast
8:51 AM 27.0 °F 17.3 °F 7.0 °F 43% 30.51 in 10.0 mi NE 10.4 mph - N/A   Overcast
9:51 AM 27.0 °F 17.3 °F 6.1 °F 41% 30.50 in 10.0 mi ENE 10.4 mph - N/A   Overcast
10:51 AM 28.0 °F 18.6 °F 7.0 °F 41% 30.52 in 10.0 mi ENE 10.4 mph - N/A   Overcast
11:51 AM 30.0 °F 21.7 °F 8.1 °F 40% 30.49 in 10.0 mi ENE 9.2 mph - N/A   Overcast
12:51 PM 30.0 °F 22.4 °F 6.1 °F 36% 30.48 in 10.0 mi ENE 8.1 mph - N/A   Overcast
1:51 PM 30.0 °F 24.1 °F 8.1 °F 40% 30.46 in 10.0 mi NE 5.8 mph - N/A   Overcast
2:51 PM 30.9 °F 22.8 °F 9.0 °F 40% 30.45 in 10.0 mi ENE 9.2 mph - N/A   Overcast
3:51 PM 30.9 °F 22.2 °F 9.0 °F 40% 30.43 in 10.0 mi NE 10.4 mph - N/A   Overcast
4:51 PM 30.9 °F 21.7 °F 10.0 °F 42% 30.42 in 10.0 mi NE 11.5 mph - N/A   Overcast
5:51 PM 32.0 °F 25.6 °F 10.9 °F 42% 30.42 in 10.0 mi ENE 6.9 mph - N/A   Overcast
6:51 PM 30.9 °F 23.5 °F 14.0 °F 50% 30.43 in 10.0 mi ENE 8.1 mph - N/A   Mostly Cloudy
7:51 PM 30.9 °F 23.5 °F 15.1 °F 52% 30.43 in 10.0 mi ENE 8.1 mph - N/A   Mostly Cloudy
8:51 PM 32.0 °F 24.8 °F 15.1 °F 50% 30.42 in 10.0 mi ENE 8.1 mph - N/A   Mostly Cloudy
9:51 PM 30.9 °F 22.2 °F 17.1 °F 57% 30.41 in 10.0 mi ENE 10.4 mph - N/A   Overcast
10:46 PM 30.2 °F 21.3 °F 19.4 °F 64% 30.38 in 10.0 mi ENE 10.4 mph - N/A   Overcast
10:51 PM 30.9 °F 22.2 °F 19.9 °F 64% 30.38 in 10.0 mi ENE 10.4 mph - N/A   Overcast
11:51 PM 32.0 °F 22.1 °F 21.0 °F 64% 30.34 in 10.0 mi ENE 13.8 mph - N/A   Overcast